Year,Month,Day,Hour,Minute,Value (Times are PST for temperature in C)
2018,03,04,00,00,0.50
2018,03,04,00,01,0.50
2018,03,04,00,02,0.40
2018,03,04,00,03,0.40
2018,03,04,00,04,0.40
2018,03,04,00,05,0.40
2018,03,04,00,06,0.40
2018,03,04,00,07,0.40
2018,03,04,00,08,0.40
2018,03,04,00,09,0.40
2018,03,04,00,10,0.40
2018,03,04,00,11,0.40
2018,03,04,00,12,0.40
2018,03,04,00,13,0.40
2018,03,04,00,14,0.40
2018,03,04,00,15,0.40
2018,03,04,00,16,0.40
2018,03,04,00,17,0.40
2018,03,04,00,18,0.40
2018,03,04,00,19,0.40
2018,03,04,00,20,0.40
2018,03,04,00,21,0.40
2018,03,04,00,22,0.40
2018,03,04,00,23,0.40
2018,03,04,00,24,0.40
2018,03,04,00,25,0.50
2018,03,04,00,26,0.50
2018,03,04,00,27,0.50
2018,03,04,00,28,0.50
2018,03,04,00,29,0.50
2018,03,04,00,30,0.50
2018,03,04,00,31,0.60
2018,03,04,00,32,0.60
2018,03,04,00,33,0.60
2018,03,04,00,34,0.60
2018,03,04,00,35,0.60
2018,03,04,00,36,0.70
2018,03,04,00,37,0.70
2018,03,04,00,38,0.70
2018,03,04,00,39,0.70
2018,03,04,00,40,0.70
2018,03,04,00,41,0.70
2018,03,04,00,42,0.80
2018,03,04,00,43,0.80
2018,03,04,00,44,0.80
2018,03,04,00,45,0.80
2018,03,04,00,46,0.80
2018,03,04,00,47,0.80
2018,03,04,00,48,0.80
2018,03,04,00,49,0.80
2018,03,04,00,50,0.90
2018,03,04,00,51,0.90
2018,03,04,00,52,0.80
2018,03,04,00,53,0.80
2018,03,04,00,54,0.80
2018,03,04,00,55,0.80
2018,03,04,00,56,0.80
2018,03,04,00,57,0.80
2018,03,04,00,58,0.80
2018,03,04,00,59,0.80
2018,03,04,01,00,0.80
2018,03,04,01,01,0.70
2018,03,04,01,02,0.70
2018,03,04,01,03,0.70
2018,03,04,01,04,0.70
2018,03,04,01,05,0.70
2018,03,04,01,06,0.70
2018,03,04,01,07,0.80
2018,03,04,01,08,0.80
2018,03,04,01,09,0.80
2018,03,04,01,10,0.80
2018,03,04,01,11,0.80
2018,03,04,01,12,0.80
2018,03,04,01,13,0.80
2018,03,04,01,14,0.80
2018,03,04,01,15,0.80
2018,03,04,01,16,0.80
2018,03,04,01,17,0.80
2018,03,04,01,18,0.80
2018,03,04,01,19,0.80
2018,03,04,01,20,0.90
2018,03,04,01,21,0.90
2018,03,04,01,22,0.90
2018,03,04,01,23,0.90
2018,03,04,01,24,0.90
2018,03,04,01,25,0.90
2018,03,04,01,26,0.90
2018,03,04,01,27,0.90
2018,03,04,01,28,1.00
2018,03,04,01,29,1.00
2018,03,04,01,30,1.00
2018,03,04,01,31,1.00
2018,03,04,01,32,1.00
2018,03,04,01,33,1.00
2018,03,04,01,34,1.00
2018,03,04,01,35,1.00
2018,03,04,01,36,1.00
2018,03,04,01,37,1.00
2018,03,04,01,38,1.10
2018,03,04,01,39,1.00
2018,03,04,01,40,1.10
2018,03,04,01,41,1.10
2018,03,04,01,42,1.10
2018,03,04,01,43,1.10
2018,03,04,01,44,1.10
2018,03,04,01,45,1.10
2018,03,04,01,46,1.10
2018,03,04,01,47,1.10
2018,03,04,01,48,1.20
2018,03,04,01,49,1.20
2018,03,04,01,50,1.20
2018,03,04,01,51,1.20
2018,03,04,01,52,1.20
2018,03,04,01,53,1.20
2018,03,04,01,54,1.20
2018,03,04,01,55,1.20
2018,03,04,01,56,1.30
2018,03,04,01,57,1.30
2018,03,04,01,58,1.30
2018,03,04,01,59,1.30
2018,03,04,02,00,1.30
2018,03,04,02,01,1.30
2018,03,04,02,02,1.30
2018,03,04,02,03,1.20
2018,03,04,02,04,1.20
2018,03,04,02,05,1.20
2018,03,04,02,06,1.20
2018,03,04,02,07,1.20
2018,03,04,02,08,1.20
2018,03,04,02,09,1.20
2018,03,04,02,10,1.30
2018,03,04,02,11,1.30
2018,03,04,02,12,1.30
2018,03,04,02,13,1.30
2018,03,04,02,14,1.30
2018,03,04,02,15,1.30
2018,03,04,02,16,1.30
2018,03,04,02,17,1.30
2018,03,04,02,18,1.30
2018,03,04,02,19,1.30
2018,03,04,02,20,1.30
2018,03,04,02,21,1.30
2018,03,04,02,22,1.30
2018,03,04,02,23,1.40
2018,03,04,02,24,1.40
2018,03,04,02,25,1.40
2018,03,04,02,26,1.40
2018,03,04,02,27,1.40
2018,03,04,02,28,1.40
2018,03,04,02,29,1.30
2018,03,04,02,30,1.30
2018,03,04,02,31,1.30
2018,03,04,02,32,1.30
2018,03,04,02,33,1.30
2018,03,04,02,34,1.30
2018,03,04,02,35,1.30
2018,03,04,02,36,1.30
2018,03,04,02,37,1.30
2018,03,04,02,38,1.30
2018,03,04,02,39,1.30
2018,03,04,02,40,1.30
2018,03,04,02,41,1.30
2018,03,04,02,42,1.30
2018,03,04,02,43,1.30
2018,03,04,02,44,1.30
2018,03,04,02,45,1.30
2018,03,04,02,46,1.30
2018,03,04,02,47,1.30
2018,03,04,02,48,1.30
2018,03,04,02,49,1.30
2018,03,04,02,50,1.30
2018,03,04,02,51,1.30
2018,03,04,02,52,1.30
2018,03,04,02,53,1.20
2018,03,04,02,54,1.20
2018,03,04,02,55,1.20
2018,03,04,02,56,1.20
2018,03,04,02,57,1.20
2018,03,04,02,58,1.20
2018,03,04,02,59,1.20
2018,03,04,03,00,1.20
2018,03,04,03,01,1.20
2018,03,04,03,02,1.30
2018,03,04,03,03,1.30
2018,03,04,03,06,1.30
2018,03,04,03,07,1.30
2018,03,04,03,08,1.30
2018,03,04,03,09,1.30
2018,03,04,03,10,1.30
2018,03,04,03,11,1.30
2018,03,04,03,12,1.30
2018,03,04,03,13,1.30
2018,03,04,03,14,1.20
2018,03,04,03,15,1.20
2018,03,04,03,16,1.20
2018,03,04,03,17,1.20
2018,03,04,03,18,1.20
2018,03,04,03,19,1.20
2018,03,04,03,20,1.20
2018,03,04,03,21,1.20
2018,03,04,03,22,1.20
2018,03,04,03,23,1.20
2018,03,04,03,24,1.20
2018,03,04,03,25,1.20
2018,03,04,03,26,1.20
2018,03,04,03,27,1.20
2018,03,04,03,28,1.20
2018,03,04,03,29,1.20
2018,03,04,03,30,1.10
2018,03,04,03,31,1.10
2018,03,04,03,32,1.10
2018,03,04,03,33,1.10
2018,03,04,03,34,1.10
2018,03,04,03,35,1.10
2018,03,04,03,36,1.10
2018,03,04,03,37,1.10
2018,03,04,03,38,1.10
2018,03,04,03,39,1.10
2018,03,04,03,40,1.00
2018,03,04,03,41,1.10
2018,03,04,03,42,1.00
2018,03,04,03,43,1.00
2018,03,04,03,44,1.00
2018,03,04,03,45,1.00
2018,03,04,03,46,1.00
2018,03,04,03,47,1.00
2018,03,04,03,48,1.00
2018,03,04,03,49,1.00
2018,03,04,03,50,1.00
2018,03,04,03,51,1.00
2018,03,04,03,52,1.00
2018,03,04,03,53,1.00
2018,03,04,03,54,0.90
2018,03,04,03,55,0.90
2018,03,04,03,56,0.90
2018,03,04,03,57,0.90
2018,03,04,03,58,0.90
2018,03,04,03,59,0.90
2018,03,04,04,00,0.90
2018,03,04,04,01,0.90
2018,03,04,04,02,0.90
2018,03,04,04,03,0.80
2018,03,04,04,04,0.80
2018,03,04,04,05,0.80
2018,03,04,04,06,0.80
2018,03,04,04,07,0.80
2018,03,04,04,08,0.80
2018,03,04,04,09,0.80
2018,03,04,04,10,0.80
2018,03,04,04,11,0.80
2018,03,04,04,12,0.80
2018,03,04,04,13,0.80
2018,03,04,04,14,0.80
2018,03,04,04,15,0.80
2018,03,04,04,16,0.80
2018,03,04,04,17,0.80
2018,03,04,04,18,0.70
2018,03,04,04,19,0.70
2018,03,04,04,20,0.70
2018,03,04,04,21,0.70
2018,03,04,04,22,0.70
2018,03,04,04,23,0.70
2018,03,04,04,24,0.70
2018,03,04,04,25,0.60
2018,03,04,04,26,0.60
2018,03,04,04,27,0.60
2018,03,04,04,28,0.60
2018,03,04,04,29,0.60
2018,03,04,04,30,0.60
2018,03,04,04,31,0.60
2018,03,04,04,32,0.60
2018,03,04,04,33,0.60
2018,03,04,04,34,0.60
2018,03,04,04,35,0.60
2018,03,04,04,36,0.60
2018,03,04,04,37,0.60
2018,03,04,04,38,0.70
2018,03,04,04,39,0.70
2018,03,04,04,40,0.70
2018,03,04,04,41,0.70
2018,03,04,04,42,0.70
2018,03,04,04,43,0.70
2018,03,04,04,44,0.70
2018,03,04,04,45,0.70
2018,03,04,04,46,0.70
2018,03,04,04,47,0.70
2018,03,04,04,48,0.80
2018,03,04,04,49,0.80
2018,03,04,04,50,0.80
2018,03,04,04,51,0.80
2018,03,04,04,52,0.80
2018,03,04,04,53,0.80
2018,03,04,04,54,0.80
2018,03,04,04,55,0.80
2018,03,04,04,56,0.70
2018,03,04,04,57,0.70
2018,03,04,04,58,0.70
2018,03,04,04,59,0.70
2018,03,04,05,00,0.70
2018,03,04,05,01,0.70
2018,03,04,05,02,0.70
2018,03,04,05,03,0.70
2018,03,04,05,04,0.70
2018,03,04,05,05,0.70
2018,03,04,05,06,0.70
2018,03,04,05,07,0.70
2018,03,04,05,08,0.60
2018,03,04,05,09,0.60
2018,03,04,05,10,0.60
2018,03,04,05,11,0.60
2018,03,04,05,12,0.60
2018,03,04,05,13,0.60
2018,03,04,05,14,0.60
2018,03,04,05,15,0.60
2018,03,04,05,16,0.60
2018,03,04,05,17,0.60
2018,03,04,05,18,0.70
2018,03,04,05,19,0.70
2018,03,04,05,20,0.70
2018,03,04,05,21,0.70
2018,03,04,05,22,0.70
2018,03,04,05,23,0.70
2018,03,04,05,24,0.70
2018,03,04,05,25,0.70
2018,03,04,05,26,0.70
2018,03,04,05,27,0.80
2018,03,04,05,28,0.80
2018,03,04,05,29,0.80
2018,03,04,05,30,0.80
2018,03,04,05,31,0.80
2018,03,04,05,32,0.90
2018,03,04,05,33,0.90
2018,03,04,05,34,0.90
2018,03,04,05,35,0.90
2018,03,04,05,36,1.00
2018,03,04,05,37,1.00
2018,03,04,05,38,1.00
2018,03,04,05,39,1.00
2018,03,04,05,40,1.10
2018,03,04,05,41,1.10
2018,03,04,05,42,1.10
2018,03,04,05,43,1.10
2018,03,04,05,44,1.10
2018,03,04,05,45,1.10
2018,03,04,05,46,1.10
2018,03,04,05,47,1.10
2018,03,04,05,48,1.10
2018,03,04,05,49,1.10
2018,03,04,05,50,1.10
2018,03,04,05,51,1.20
2018,03,04,05,52,1.20
2018,03,04,05,53,1.20
2018,03,04,05,54,1.20
2018,03,04,05,55,1.20
2018,03,04,05,56,1.20
2018,03,04,05,57,1.20
2018,03,04,05,58,1.30
2018,03,04,05,59,1.30
2018,03,04,06,00,1.30
2018,03,04,06,01,1.30
2018,03,04,06,02,1.30
2018,03,04,06,03,1.30
2018,03,04,06,04,1.30
2018,03,04,06,05,1.30
2018,03,04,06,06,1.30
2018,03,04,06,07,1.30
2018,03,04,06,08,1.30
2018,03,04,06,09,1.30
2018,03,04,06,10,1.30
2018,03,04,06,11,1.20
2018,03,04,06,12,1.20
2018,03,04,06,13,1.20
2018,03,04,06,14,1.20
2018,03,04,06,15,1.20
2018,03,04,06,16,1.20
2018,03,04,06,17,1.20
2018,03,04,06,18,1.20
2018,03,04,06,19,1.20
2018,03,04,06,20,1.20
2018,03,04,06,21,1.20
2018,03,04,06,22,1.20
2018,03,04,06,23,1.20
2018,03,04,06,24,1.20
2018,03,04,06,25,1.20
2018,03,04,06,26,1.30
2018,03,04,06,27,1.30
2018,03,04,06,28,1.30
2018,03,04,06,29,1.30
2018,03,04,06,30,1.30
2018,03,04,06,31,1.30
2018,03,04,06,32,1.30
2018,03,04,06,33,1.30
2018,03,04,06,34,1.30
2018,03,04,06,35,1.30
2018,03,04,06,36,1.30
2018,03,04,06,37,1.30
2018,03,04,06,38,1.30
2018,03,04,06,39,1.30
2018,03,04,06,40,1.30
2018,03,04,06,41,1.30
2018,03,04,06,42,1.30
2018,03,04,06,43,1.30
2018,03,04,06,44,1.30
2018,03,04,06,45,1.30
2018,03,04,06,46,1.30
2018,03,04,06,47,1.40
2018,03,04,06,48,1.40
2018,03,04,06,49,1.40
2018,03,04,06,50,1.40
2018,03,04,06,51,1.40
2018,03,04,06,52,1.40
2018,03,04,06,53,1.40
2018,03,04,06,54,1.40
2018,03,04,06,55,1.50
2018,03,04,06,56,1.50
2018,03,04,06,57,1.50
2018,03,04,06,58,1.50
2018,03,04,06,59,1.50
2018,03,04,07,00,1.50
2018,03,04,07,01,1.50
2018,03,04,07,02,1.50
2018,03,04,07,03,1.50
2018,03,04,07,04,1.50
2018,03,04,07,05,1.60
2018,03,04,07,06,1.60
2018,03,04,07,07,1.60
2018,03,04,07,08,1.60
2018,03,04,07,09,1.60
2018,03,04,07,10,1.60
2018,03,04,07,11,1.60
2018,03,04,07,12,1.60
2018,03,04,07,13,1.60
2018,03,04,07,14,1.60
2018,03,04,07,15,1.60
2018,03,04,07,16,1.60
2018,03,04,07,17,1.60
2018,03,04,07,18,1.60
2018,03,04,07,19,1.60
2018,03,04,07,20,1.60
2018,03,04,07,21,1.60
2018,03,04,07,22,1.60
2018,03,04,07,23,1.60
2018,03,04,07,24,1.60
2018,03,04,07,25,1.60
2018,03,04,07,26,1.60
2018,03,04,07,27,1.60
2018,03,04,07,28,1.60
2018,03,04,07,29,1.60
2018,03,04,07,30,1.60
2018,03,04,07,31,1.60
2018,03,04,07,32,1.60
2018,03,04,07,33,1.60
2018,03,04,07,34,1.60
2018,03,04,07,35,1.60
2018,03,04,07,36,1.70
2018,03,04,07,37,1.70
2018,03,04,07,38,1.70
2018,03,04,07,39,1.70
2018,03,04,07,40,1.70
2018,03,04,07,41,1.70
2018,03,04,07,42,1.70
2018,03,04,07,43,1.80
2018,03,04,07,44,1.80
2018,03,04,07,45,1.80
2018,03,04,07,46,1.80
2018,03,04,07,47,1.80
2018,03,04,07,48,1.90
2018,03,04,07,49,1.90
2018,03,04,07,50,1.90
2018,03,04,07,51,1.90
2018,03,04,07,52,1.90
2018,03,04,07,53,2.00
2018,03,04,07,54,2.00
2018,03,04,07,55,2.00
2018,03,04,07,56,2.00
2018,03,04,07,57,2.10
2018,03,04,07,58,2.10
2018,03,04,07,59,2.10
2018,03,04,08,00,2.10
2018,03,04,08,01,2.10
2018,03,04,08,02,2.20
2018,03,04,08,03,2.20
2018,03,04,08,04,2.20
2018,03,04,08,05,2.20
2018,03,04,08,06,2.30
2018,03,04,08,07,2.30
2018,03,04,08,08,2.30
2018,03,04,08,09,2.40
2018,03,04,08,10,2.40
2018,03,04,08,11,2.40
2018,03,04,08,12,2.40
2018,03,04,08,13,2.40
2018,03,04,08,14,2.40
2018,03,04,08,15,2.40
2018,03,04,08,16,2.40
2018,03,04,08,17,2.40
2018,03,04,08,18,2.40
2018,03,04,08,19,2.40
2018,03,04,08,20,2.40
2018,03,04,08,21,2.40
2018,03,04,08,22,2.40
2018,03,04,08,23,2.40
2018,03,04,08,24,2.40
2018,03,04,08,25,2.40
2018,03,04,08,26,2.40
2018,03,04,08,27,2.40
2018,03,04,08,28,2.40
2018,03,04,08,29,2.40
2018,03,04,08,30,2.50
2018,03,04,08,31,2.50
2018,03,04,08,32,2.50
2018,03,04,08,33,2.50
2018,03,04,08,34,2.50
2018,03,04,08,35,2.50
2018,03,04,08,36,2.60
2018,03,04,08,37,2.60
2018,03,04,08,38,2.60
2018,03,04,08,39,2.60
2018,03,04,08,40,2.60
2018,03,04,08,41,2.60
2018,03,04,08,42,2.70
2018,03,04,08,43,2.70
2018,03,04,08,44,2.70
2018,03,04,08,45,2.80
2018,03,04,08,46,2.80
2018,03,04,08,47,2.90
2018,03,04,08,48,2.90
2018,03,04,08,49,3.00
2018,03,04,08,50,3.10
2018,03,04,08,51,3.10
2018,03,04,08,52,3.20
2018,03,04,08,53,3.30
2018,03,04,08,54,3.40
2018,03,04,08,55,3.50
2018,03,04,08,56,3.70
2018,03,04,08,57,3.80
2018,03,04,08,58,3.90
2018,03,04,08,59,4.00
2018,03,04,09,00,4.10
2018,03,04,09,01,4.20
2018,03,04,09,02,4.30
2018,03,04,09,03,4.30
2018,03,04,09,04,4.30
2018,03,04,09,05,4.40
2018,03,04,09,06,4.30
2018,03,04,09,07,4.30
2018,03,04,09,08,4.30
2018,03,04,09,09,4.30
2018,03,04,09,10,4.30
2018,03,04,09,11,4.20
2018,03,04,09,12,4.20
2018,03,04,09,13,4.20
2018,03,04,09,14,4.10
2018,03,04,09,15,4.10
2018,03,04,09,16,4.10
2018,03,04,09,17,4.10
2018,03,04,09,18,4.10
2018,03,04,09,19,4.10
2018,03,04,09,20,4.10
2018,03,04,09,21,4.10
2018,03,04,09,22,4.20
2018,03,04,09,23,4.30
2018,03,04,09,24,4.40
2018,03,04,09,25,4.40
2018,03,04,09,26,4.50
2018,03,04,09,27,4.60
2018,03,04,09,28,4.70
2018,03,04,09,29,4.70
2018,03,04,09,30,4.80
2018,03,04,09,31,4.90
2018,03,04,09,32,5.00
2018,03,04,09,33,5.20
2018,03,04,09,34,5.20
2018,03,04,09,35,5.30
2018,03,04,09,36,5.30
2018,03,04,09,37,5.40
2018,03,04,09,38,5.50
2018,03,04,09,39,5.50
2018,03,04,09,40,5.50
2018,03,04,09,41,5.60
2018,03,04,09,42,5.60
2018,03,04,09,43,5.60
2018,03,04,09,44,5.60
2018,03,04,09,45,5.50
2018,03,04,09,46,5.50
2018,03,04,09,47,5.40
2018,03,04,09,48,5.40
2018,03,04,09,49,5.50
2018,03,04,09,50,5.50
2018,03,04,09,51,5.50
2018,03,04,09,52,5.60
2018,03,04,09,53,5.60
2018,03,04,09,54,5.60
2018,03,04,09,55,5.60
2018,03,04,09,56,5.60
2018,03,04,09,57,5.60
2018,03,04,09,58,5.60
2018,03,04,09,59,5.60
2018,03,04,10,00,5.50
2018,03,04,10,01,5.50
2018,03,04,10,02,5.50
2018,03,04,10,03,5.40
2018,03,04,10,04,5.40
2018,03,04,10,05,5.30
2018,03,04,10,06,5.30
2018,03,04,10,07,5.30
2018,03,04,10,08,5.30
2018,03,04,10,09,5.30
2018,03,04,10,10,5.30
2018,03,04,10,11,5.30
2018,03,04,10,12,5.30
2018,03,04,10,13,5.30
2018,03,04,10,14,5.30
2018,03,04,10,15,5.30
2018,03,04,10,16,5.30
2018,03,04,10,17,5.40
2018,03,04,10,18,5.40
2018,03,04,10,19,5.40
2018,03,04,10,20,5.40
2018,03,04,10,21,5.40
2018,03,04,10,22,5.50
2018,03,04,10,23,5.50
2018,03,04,10,24,5.60
2018,03,04,10,25,5.70
2018,03,04,10,26,5.80
2018,03,04,10,27,5.90
2018,03,04,10,28,5.90
2018,03,04,10,29,6.00
2018,03,04,10,30,6.00
2018,03,04,10,31,6.10
2018,03,04,10,32,6.20
2018,03,04,10,33,6.20
2018,03,04,10,34,6.20
2018,03,04,10,35,6.20
2018,03,04,10,36,6.20
2018,03,04,10,37,6.30
2018,03,04,10,38,6.30
2018,03,04,10,39,6.30
2018,03,04,10,40,6.40
2018,03,04,10,41,6.40
2018,03,04,10,42,6.50
2018,03,04,10,43,6.50
2018,03,04,10,44,6.60
2018,03,04,10,45,6.70
2018,03,04,10,46,6.80
2018,03,04,10,47,6.90
2018,03,04,10,48,7.00
2018,03,04,10,49,7.20
2018,03,04,10,50,7.30
2018,03,04,10,51,7.30
2018,03,04,10,52,7.30
2018,03,04,10,53,7.30
2018,03,04,10,54,7.40
2018,03,04,10,55,7.30
2018,03,04,10,56,7.30
2018,03,04,10,57,7.40
2018,03,04,10,58,7.30
2018,03,04,10,59,7.30
2018,03,04,11,00,7.40
2018,03,04,11,01,7.40
2018,03,04,11,02,7.40
2018,03,04,11,03,7.30
2018,03,04,11,04,7.30
2018,03,04,11,05,7.20
2018,03,04,11,06,7.20
2018,03,04,11,07,7.20
2018,03,04,11,08,7.20
2018,03,04,11,09,7.30
2018,03,04,11,10,7.40
2018,03,04,11,11,7.50
2018,03,04,11,12,7.60
2018,03,04,11,13,7.70
2018,03,04,11,14,7.80
2018,03,04,11,15,7.80
2018,03,04,11,16,7.90
2018,03,04,11,17,7.90
2018,03,04,11,18,7.80
2018,03,04,11,19,7.80
2018,03,04,11,20,7.90
2018,03,04,11,21,7.90
2018,03,04,11,22,8.00
2018,03,04,11,23,8.00
2018,03,04,11,24,8.10
2018,03,04,11,25,8.10
2018,03,04,11,26,8.10
2018,03,04,11,27,8.20
2018,03,04,11,28,8.20
2018,03,04,11,29,8.20
2018,03,04,11,30,8.10
2018,03,04,11,31,8.00
2018,03,04,11,32,7.90
2018,03,04,11,33,7.90
2018,03,04,11,34,7.80
2018,03,04,11,35,7.80
2018,03,04,11,36,7.80
2018,03,04,11,37,7.80
2018,03,04,11,38,7.80
2018,03,04,11,39,7.80
2018,03,04,11,40,7.80
2018,03,04,11,41,7.80
2018,03,04,11,42,7.80
2018,03,04,11,43,7.80
2018,03,04,11,44,7.80
2018,03,04,11,45,7.70
2018,03,04,11,46,7.70
2018,03,04,11,47,7.70
2018,03,04,11,48,7.70
2018,03,04,11,49,7.70
2018,03,04,11,50,7.80
2018,03,04,11,51,7.80
2018,03,04,11,52,7.80
2018,03,04,11,53,7.90
2018,03,04,11,54,7.90
2018,03,04,11,55,8.00
2018,03,04,11,56,8.10
2018,03,04,11,57,8.10
2018,03,04,11,58,8.20
2018,03,04,11,59,8.20
2018,03,04,12,00,8.20
2018,03,04,12,01,8.20
2018,03,04,12,02,8.20
2018,03,04,12,03,8.20
2018,03,04,12,04,8.20
2018,03,04,12,05,8.20
2018,03,04,12,06,8.20
2018,03,04,12,07,8.20
2018,03,04,12,08,8.20
2018,03,04,12,09,8.20
2018,03,04,12,10,8.20
2018,03,04,12,11,8.30
2018,03,04,12,12,8.30
2018,03,04,12,13,8.40
2018,03,04,12,14,8.50
2018,03,04,12,15,8.60
2018,03,04,12,16,8.70
2018,03,04,12,17,8.80
2018,03,04,12,18,8.90
2018,03,04,12,19,8.90
2018,03,04,12,20,9.00
2018,03,04,12,21,9.10
2018,03,04,12,22,9.20
2018,03,04,12,23,9.30
2018,03,04,12,24,9.40
2018,03,04,12,25,9.40
2018,03,04,12,26,9.40
2018,03,04,12,27,9.40
2018,03,04,12,28,9.40
2018,03,04,12,29,9.30
2018,03,04,12,30,9.20
2018,03,04,12,31,9.20
2018,03,04,12,32,9.30
2018,03,04,12,33,9.40
2018,03,04,12,34,9.40
2018,03,04,12,35,9.50
2018,03,04,12,36,9.60
2018,03,04,12,37,9.60
2018,03,04,12,38,9.50
2018,03,04,12,39,9.40
2018,03,04,12,40,9.30
2018,03,04,12,41,9.20
2018,03,04,12,42,9.20
2018,03,04,12,43,9.20
2018,03,04,12,44,9.10
2018,03,04,12,45,9.20
2018,03,04,12,46,9.20
2018,03,04,12,47,9.20
2018,03,04,12,48,9.20
2018,03,04,12,49,9.30
2018,03,04,12,50,9.30
2018,03,04,12,51,9.20
2018,03,04,12,52,9.20
2018,03,04,12,53,9.20
2018,03,04,12,54,9.20
2018,03,04,12,55,9.20
2018,03,04,12,56,9.20
2018,03,04,12,57,9.20
2018,03,04,12,58,9.20
2018,03,04,12,59,9.10
2018,03,04,13,00,9.10
2018,03,04,13,01,9.10
2018,03,04,13,02,9.00
2018,03,04,13,03,9.00
2018,03,04,13,04,8.90
2018,03,04,13,05,8.90
2018,03,04,13,06,8.90
2018,03,04,13,07,8.90
2018,03,04,13,08,8.90
2018,03,04,13,09,9.00
2018,03,04,13,10,9.00
2018,03,04,13,11,9.00
2018,03,04,13,12,8.90
2018,03,04,13,13,9.00
2018,03,04,13,14,9.00
2018,03,04,13,15,9.00
2018,03,04,13,16,8.90
2018,03,04,13,17,8.90
2018,03,04,13,18,8.90
2018,03,04,13,19,8.90
2018,03,04,13,20,8.90
2018,03,04,13,21,8.80
2018,03,04,13,22,8.80
2018,03,04,13,23,8.80
2018,03,04,13,24,8.80
2018,03,04,13,25,8.70
2018,03,04,13,26,8.70
2018,03,04,13,27,8.70
2018,03,04,13,28,8.70
2018,03,04,13,29,8.80
2018,03,04,13,30,8.80
2018,03,04,13,31,8.80
2018,03,04,13,32,8.90
2018,03,04,13,33,9.00
2018,03,04,13,34,9.10
2018,03,04,13,35,9.10
2018,03,04,13,36,9.20
2018,03,04,13,37,9.20
2018,03,04,13,38,9.20
2018,03,04,13,39,9.30
2018,03,04,13,40,9.30
2018,03,04,13,41,9.30
2018,03,04,13,42,9.30
2018,03,04,13,43,9.20
2018,03,04,13,44,9.10
2018,03,04,13,45,9.10
2018,03,04,13,46,9.10
2018,03,04,13,47,9.00
2018,03,04,13,48,9.00
2018,03,04,13,49,8.90
2018,03,04,13,50,9.00
2018,03,04,13,51,9.00
2018,03,04,13,52,9.10
2018,03,04,13,53,9.10
2018,03,04,13,54,9.20
2018,03,04,13,55,9.20
2018,03,04,13,56,9.20
2018,03,04,13,57,9.20
2018,03,04,13,58,9.20
2018,03,04,13,59,9.30
2018,03,04,14,00,9.30
2018,03,04,14,01,9.30
2018,03,04,14,02,9.30
2018,03,04,14,03,9.20
2018,03,04,14,04,9.20
2018,03,04,14,05,9.20
2018,03,04,14,06,9.20
2018,03,04,14,07,9.20
2018,03,04,14,08,9.10
2018,03,04,14,09,9.20
2018,03,04,14,10,9.20
2018,03,04,14,11,9.20
2018,03,04,14,12,9.10
2018,03,04,14,13,9.20
2018,03,04,14,14,9.20
2018,03,04,14,15,9.10
2018,03,04,14,16,9.10
2018,03,04,14,17,9.10
2018,03,04,14,18,9.10
2018,03,04,14,19,9.10
2018,03,04,14,20,9.10
2018,03,04,14,21,9.10
2018,03,04,14,22,9.20
2018,03,04,14,23,9.20
2018,03,04,14,24,9.20
2018,03,04,14,25,9.20
2018,03,04,14,26,9.20
2018,03,04,14,27,9.20
2018,03,04,14,28,9.20
2018,03,04,14,29,9.20
2018,03,04,14,30,9.20
2018,03,04,14,31,9.20
2018,03,04,14,32,9.20
2018,03,04,14,33,9.30
2018,03,04,14,34,9.30
2018,03,04,14,35,9.30
2018,03,04,14,36,9.30
2018,03,04,14,37,9.30
2018,03,04,14,38,9.30
2018,03,04,14,39,9.20
2018,03,04,14,40,9.20
2018,03,04,14,41,9.20
2018,03,04,14,42,9.10
2018,03,04,14,43,9.10
2018,03,04,14,44,9.10
2018,03,04,14,45,9.10
2018,03,04,14,46,9.20
2018,03,04,14,47,9.20
2018,03,04,14,48,9.20
2018,03,04,14,49,9.20
2018,03,04,14,50,9.20
2018,03,04,14,51,9.20
2018,03,04,14,52,9.20
2018,03,04,14,53,9.20
2018,03,04,14,54,9.20
2018,03,04,14,55,9.20
2018,03,04,14,56,9.20
2018,03,04,14,57,9.10
2018,03,04,14,58,9.10
2018,03,04,14,59,9.10
2018,03,04,15,00,9.00
2018,03,04,15,01,9.00
2018,03,04,15,02,8.90
2018,03,04,15,03,8.90
2018,03,04,15,04,8.90
2018,03,04,15,05,8.90
2018,03,04,15,06,8.90
2018,03,04,15,07,8.90
2018,03,04,15,08,8.80
2018,03,04,15,09,8.80
2018,03,04,15,10,8.90
2018,03,04,15,11,8.90
2018,03,04,15,12,8.90
2018,03,04,15,13,8.90
2018,03,04,15,14,9.00
2018,03,04,15,15,9.00
2018,03,04,15,16,9.10
2018,03,04,15,17,9.20
2018,03,04,15,18,9.20
2018,03,04,15,19,9.30
2018,03,04,15,20,9.30
2018,03,04,15,21,9.30
2018,03,04,15,22,9.30
2018,03,04,15,23,9.30
2018,03,04,15,24,9.30
2018,03,04,15,25,9.20
2018,03,04,15,26,9.20
2018,03,04,15,27,9.20
2018,03,04,15,28,9.20
2018,03,04,15,29,9.20
2018,03,04,15,30,9.30
2018,03,04,15,31,9.30
2018,03,04,15,32,9.30
2018,03,04,15,33,9.30
2018,03,04,15,34,9.20
2018,03,04,15,35,9.20
2018,03,04,15,36,9.20
2018,03,04,15,37,9.20
2018,03,04,15,38,9.20
2018,03,04,15,39,9.20
2018,03,04,15,40,9.20
2018,03,04,15,41,9.20
2018,03,04,15,42,9.20
2018,03,04,15,43,9.10
2018,03,04,15,44,9.10
2018,03,04,15,45,9.10
2018,03,04,15,46,9.10
2018,03,04,15,47,9.10
2018,03,04,15,48,9.00
2018,03,04,15,49,9.00
2018,03,04,15,50,8.90
2018,03,04,15,51,8.90
2018,03,04,15,52,8.90
2018,03,04,15,53,8.80
2018,03,04,15,54,8.80
2018,03,04,15,55,8.80
2018,03,04,15,56,8.80
2018,03,04,15,57,8.80
2018,03,04,15,58,8.80
2018,03,04,15,59,8.70
2018,03,04,16,00,8.70
2018,03,04,16,01,8.70
2018,03,04,16,02,8.70
2018,03,04,16,03,8.70
2018,03,04,16,04,8.70
2018,03,04,16,05,8.70
2018,03,04,16,06,8.70
2018,03,04,16,07,8.70
2018,03,04,16,08,8.70
2018,03,04,16,09,8.70
2018,03,04,16,10,8.60
2018,03,04,16,11,8.60
2018,03,04,16,12,8.50
2018,03,04,16,13,8.50
2018,03,04,16,14,8.40
2018,03,04,16,15,8.40
2018,03,04,16,16,8.30
2018,03,04,16,17,8.30
2018,03,04,16,18,8.20
2018,03,04,16,19,8.20
2018,03,04,16,20,8.20
2018,03,04,16,21,8.10
2018,03,04,16,22,8.10
2018,03,04,16,23,8.00
2018,03,04,16,24,8.00
2018,03,04,16,25,7.90
2018,03,04,16,26,7.90
2018,03,04,16,27,7.80
2018,03,04,16,28,7.80
2018,03,04,16,29,7.70
2018,03,04,16,30,7.70
2018,03,04,16,31,7.70
2018,03,04,16,32,7.60
2018,03,04,16,33,7.60
2018,03,04,16,34,7.60
2018,03,04,16,35,7.50
2018,03,04,16,36,7.50
2018,03,04,16,37,7.50
2018,03,04,16,38,7.50
2018,03,04,16,39,7.40
2018,03,04,16,40,7.40
2018,03,04,16,41,7.40
2018,03,04,16,42,7.40
2018,03,04,16,43,7.40
2018,03,04,16,44,7.40
2018,03,04,16,45,7.40
2018,03,04,16,46,7.40
2018,03,04,16,47,7.30
2018,03,04,16,48,7.30
2018,03,04,16,49,7.30
2018,03,04,16,50,7.30
2018,03,04,16,51,7.30
2018,03,04,16,52,7.30
2018,03,04,16,53,7.30
2018,03,04,16,54,7.30
2018,03,04,16,55,7.30
2018,03,04,16,56,7.30
2018,03,04,16,57,7.20
2018,03,04,16,58,7.20
2018,03,04,16,59,7.20
2018,03,04,17,00,7.20
2018,03,04,17,01,7.20
2018,03,04,17,02,7.10
2018,03,04,17,03,7.10
2018,03,04,17,04,7.10
2018,03,04,17,05,7.00
2018,03,04,17,06,7.00
2018,03,04,17,07,7.00
2018,03,04,17,08,7.00
2018,03,04,17,09,6.90
2018,03,04,17,10,6.90
2018,03,04,17,11,6.90
2018,03,04,17,12,6.80
2018,03,04,17,13,6.80
2018,03,04,17,14,6.70
2018,03,04,17,15,6.70
2018,03,04,17,16,6.70
2018,03,04,17,17,6.60
2018,03,04,17,18,6.60
2018,03,04,17,19,6.50
2018,03,04,17,20,6.50
2018,03,04,17,21,6.40
2018,03,04,17,22,6.40
2018,03,04,17,23,6.40
2018,03,04,17,24,6.30
2018,03,04,17,25,6.30
2018,03,04,17,26,6.30
2018,03,04,17,27,6.20
2018,03,04,17,28,6.20
2018,03,04,17,29,6.10
2018,03,04,17,30,6.10
2018,03,04,17,31,6.10
2018,03,04,17,32,6.00
2018,03,04,17,33,6.00
2018,03,04,17,34,5.90
2018,03,04,17,35,5.90
2018,03,04,17,36,5.80
2018,03,04,17,37,5.80
2018,03,04,17,38,5.70
2018,03,04,17,39,5.70
2018,03,04,17,40,5.70
2018,03,04,17,41,5.60
2018,03,04,17,42,5.60
2018,03,04,17,43,5.50
2018,03,04,17,44,5.50
2018,03,04,17,45,5.50
2018,03,04,17,46,5.40
2018,03,04,17,47,5.40
2018,03,04,17,48,5.30
2018,03,04,17,49,5.30
2018,03,04,17,50,5.30
2018,03,04,17,51,5.20
2018,03,04,17,52,5.20
2018,03,04,17,53,5.20
2018,03,04,17,54,5.10
2018,03,04,17,55,5.10
2018,03,04,17,56,5.00
2018,03,04,17,57,5.00
2018,03,04,17,58,4.90
2018,03,04,17,59,4.90
2018,03,04,18,00,4.90
2018,03,04,18,01,4.80
2018,03,04,18,02,4.80
2018,03,04,18,03,4.80
2018,03,04,18,04,4.80
2018,03,04,18,05,4.70
2018,03,04,18,06,4.70
2018,03,04,18,07,4.70
2018,03,04,18,08,4.60